EW6420 Weather Reports


Display with metric or nautical units.
time (UTC)temp
F
wind
direction
speed
MPH
gust
MPH
rain 1hr
in
rain 24hr
in
rain mn
in
humidity
%
barometer
mb
20260901090000 57 88 0.0 0.0 0.00 0.00 0.00 81 1008.6
20260901084459 58 88 0.0 2.0 0.00 0.00 0.00 80 1008.5
20260901083000 58 88 0.0 0.0 0.00 0.00 0.00 80 1008.5
20260901081501 58 88 0.0 0.0 0.00 0.00 0.00 80 1008.6
20260901080004 59 88 0.0 0.0 0.00 0.00 0.00 79 1008.4
20260901074501 59 88 0.0 0.0 0.00 0.00 0.00 78 1008.1
20260901073002 59 88 0.0 0.0 0.00 0.00 0.00 78 1008.0
20260901071502 60 88 0.0 0.0 0.00 0.00 0.00 77 1008.0
20260901070005 60 88 0.0 0.0 0.00 0.00 0.00 77 1008.0
20260901064502 60 88 0.0 0.0 0.00 0.00 0.00 76 1008.1
20260901063002 61 88 0.0 0.0 0.00 0.00 0.00 75 1008.0
20260901061502 61 88 0.0 0.0 0.00 0.00 0.00 74 1008.0
20260901060005 61 88 0.0 0.0 0.00 0.00 0.00 73 1008.2
20260901054502 62 88 0.0 0.0 0.00 0.00 0.00 72 1008.3
20260901051503 63 88 0.0 0.0 0.00 0.00 0.00 70 1008.3
20260901050005 63 88 0.0 0.0 0.00 0.00 0.00 69 1008.4
20260901044506 64 88 0.0 0.0 0.00 0.00 0.00 68 1008.4
20260901043003 64 88 0.0 0.0 0.00 0.00 0.00 68 1008.4
20260901041502 65 88 0.0 0.0 0.00 0.00 0.00 67 1008.4
20260901040007 65 88 0.0 0.0 0.00 0.00 0.00 66 1008.3
20260901034502 66 88 0.0 0.0 0.00 0.00 0.00 65 1008.2
20260901033004 66 88 0.0 0.0 0.00 0.00 0.00 64 1008.0
20260901031503 67 88 0.0 0.0 0.00 0.00 0.00 62 1007.8
20260901030006 68 88 0.0 0.0 0.00 0.00 0.00 61 1007.7
20260901023002 69 88 0.0 2.0 0.00 0.00 0.00 60 1007.8
20260901021501 70 88 0.0 2.0 0.00 0.00 0.00 59 1007.8
20260901014502 71 88 0.0 0.0 0.00 0.00 0.00 56 1007.9
20260901011502 73 88 0.0 2.0 0.00 0.00 0.00 53 1007.9
20260901010005 74 95 0.0 2.0 0.00 0.00 0.00 52 1007.8
20260901004501 74 95 0.0 2.0 0.00 0.00 0.00 51 1007.8
20260901003002 75 95 0.0 2.0 0.00 0.00 0.00 51 1007.9
20260901001503 74 104 0.0 2.0 0.00 0.00 0.00 53 1008.0
20260901000006 73 105 0.0 2.0 0.00 0.00 0.00 54 1008.1
20260831234502 73 105 0.0 2.0 0.00 0.00 0.00 53 1008.3
20260831233002 73 147 0.0 3.0 0.00 0.00 0.00 54 1008.3
20260831231502 73 94 0.0 3.0 0.00 0.00 0.00 54 1008.5
20260831230004 73 94 0.0 3.0 0.00 0.00 0.00 54 1008.6
20260831224502 73 82 1.0 4.0 0.00 0.00 0.00 54 1008.9
20260831220010 72 96 0.0 2.0 0.00 0.00 0.00 57 1009.4
20260831210005 70 88 1.0 3.0 0.00 0.00 0.00 60 1010.0
20260831204503 69 94 0.0 2.0 0.00 0.00 0.00 61 1010.0
20260831203002 69 94 1.0 4.0 0.00 0.00 0.00 61 1010.2
20260831201502 68 128 1.0 2.0 0.00 0.00 0.00 62 1010.4
20260831194502 67 101 0.0 3.0 0.00 0.00 0.00 65 1010.8
20260831193002 66 16 0.0 4.0 0.00 0.00 0.00 65 1011.0
20260831190001 65 80 1.0 2.0 0.00 0.00 0.00 68 1011.6
20260831184501 64 74 0.0 2.0 0.00 0.00 0.00 70 1011.7
20260831183002 63 82 0.0 3.0 0.00 0.00 0.00 72 1011.9
20260831181502 62 77 0.0 0.0 0.00 0.00 0.00 73 1012.0
20260831180002 62 77 0.0 2.0 0.00 0.00 0.00 73 1012.2
20260831174501 61 156 0.0 3.0 0.00 0.00 0.00 74 1012.3
20260831173002 60 148 0.0 2.0 0.00 0.00 0.00 75 1012.4
20260831171500 60 92 0.0 2.0 0.00 0.00 0.00 76 1012.5
20260831170006 59 110 0.0 3.0 0.00 0.00 0.00 78 1012.6
20260831164503 58 100 0.0 2.0 0.00 0.00 0.00 79 1012.7
20260831163004 58 33 0.0 2.0 0.00 0.00 0.00 81 1013.0
20260831161503 57 109 0.0 1.0 0.00 0.00 0.00 81 1013.1
20260831160002 56 75 0.0 2.0 0.00 0.00 0.00 81 1013.2
20260831154501 56 75 0.0 2.0 0.00 0.00 0.00 84 1013.4
20260831153000 55 106 0.0 2.0 0.00 0.00 0.00 87 1013.5
20260831150005 52 106 0.0 0.0 0.00 0.00 0.00 90 1013.5
20260831144501 52 106 0.0 0.0 0.00 0.00 0.00 89 1013.4
20260831143002 51 106 0.0 0.0 0.00 0.00 0.00 89 1013.4
20260831140005 51 106 0.0 0.0 0.00 0.00 0.00 89 1013.6
20260831134502 51 106 0.0 0.0 0.00 0.00 0.00 89 1013.4
20260831133001 51 106 0.0 0.0 0.00 0.00 0.00 88 1013.5
20260831131503 52 106 0.0 0.0 0.00 0.00 0.00 88 1013.5
20260831124503 52 106 0.0 0.0 0.00 0.00 0.00 87 1013.6
20260831120005 53 106 0.0 0.0 0.00 0.00 0.00 87 1013.9
20260831114501 53 106 0.0 0.0 0.00 0.00 0.00 87 1013.9
20260831113001 54 106 0.0 0.0 0.00 0.00 0.00 86 1014.0
20260831110000 54 106 0.0 0.0 0.00 0.00 0.00 85 1014.2
20260831104501 54 106 0.0 0.0 0.00 0.00 0.00 85 1014.4
20260831103002 55 106 0.0 0.0 0.00 0.00 0.00 84 1014.4
20260831101501 55 106 0.0 0.0 0.00 0.00 0.00 84 1014.4
20260831100006 55 106 0.0 0.0 0.00 0.00 0.00 83 1014.4
20260831093001 55 106 0.0 0.0 0.00 0.00 0.00 82 1014.8
20260831091501 56 106 0.0 0.0 0.00 0.00 0.00 81 1015.1